NOAA 16 DEB, 41256

Orbit data source: Space-Track

NOAA 16 DEB, 41256 is space debris in SSO originally from a launch on Thu, 21 Sep 2000 UTC launched from the Air Force Western Test Range (AFWTR). Debris objects in space refer to the collection of defunct objects orbiting the Earth. Examples of debris include non-operational satellites, rocket bodies, and fragments generated from explosions, collisions, or faulty payload assembly.

Loading next visibility...
NOAA 16 DEB details
Identifier
41256, 2000-055FG
Orbit
SSO
Last TLE update1 day ago
Origin
Flag of USNOAA (US)
ManufacturerUnknown
MissionSpacecraft
Bus & MotorUnknown
MassUnknown
Launch date (UTC)
2000-09-21 (24 years ago)
Launch vehicleUnknown
Launch site
Air Force Western Test Range (AFWTR)
Object type
Payload
Rocket body
Debris
Shape & HBRUnknown
Radar Cross SectionSmall (<0.1 m²)

Expand to show TLE details & history

TLE from 1 day ago
0 NOAA 16 DEB
1 41256U 00055FG  24360.38586642  .00023406  00000-0  70584-2 0  9996
2 41256  99.1040 214.7794 0020047 327.4972  32.4980 14.42341697466074
Epoch: 2024-12-25T09:15Z
Definitive object data (Epoch: 2024-12-25T09:15:38.858Z)
Latitude-0.00002°
Longitude-18.51287°
Altitude741.656 km
Speed7.49 km/s
True Right ascension14h 19m 07s
True Declination0° 00' 00"
Sunlit
Object was in daylight at TLE epoch
Visualization TLE readout
Latitude40.47343°
Longitude-25.06358°
Altitude753.128 km
Speed7.484 km/s
Apparent Right ascension17h 41m 28s
Apparent Declination24° 43' 60"
Sunlit
Object is in daylight
Visualization observer readout
Local Sidereal Time13:06:52
Azimuth82.676° E
Elevation31.472°
Doppler factor1
Orbital elements
Apogee altitude762.206 km
Perigee altitude733.635 km
Semi-major axis7,126.057 km
Eccentricity0.0020047
Inclination99.104°
RAAN214.7794°
Arg. of periapsis327.4972°
True anomaly32.62168°
Mean anomaly32.498°
Eccentric anomaly32.55982°
Mean motion3.60802 °/min
BSTAR0.0070584
Orbital period99.78 mins
Loading maneuver chart data...
Loading historical data...
Loading historical data...
Loading historical data...
Loading historical data...
Loading historical data...
Loading historical data...
Loading historical data...

NOAA 16 DEB Visibility forecast

Observer location: undefined°, undefined

Span
Click to sort rows by Start time (UTC) header in descending order
Start Az.
Max El. time (UTC)
Max El. Az.
Max El.
End time (UTC)
End Az.
5 mins2024-12-26 13:45:08.360Z83.223° E2024-12-26 13:46:08.360Z58.935° ENE28.035°2024-12-26 13:50:08.360Z5.715° NNE
6 mins2024-12-26 15:22:08.360Z223.73° SW2024-12-26 15:24:08.360Z258.506° W24.552°2024-12-26 15:28:08.360Z318.416° NNW
8 mins2024-12-27 03:28:08.360Z15.402° NNE2024-12-27 03:32:08.360Z184.15° SSW43.84°2024-12-27 03:36:08.360Z194.111° SSW
|